User: anonymous   Login
Location: Caltech
(34.1382°N, 118.1253°W)
Time: 21:19:06
(UTC-07:00)
Language:

ADEOS II - Orbit

View from above orbital plane
View from above orbital plane
View from above satellite
View from above satellite

Ground track
Ground track

The orbit data is extracted from the following two-line orbital elements,

1 27597U 02056A   16243.04848938  .00000069  00000-0  44898-4 0  9995
2 27597  98.3290 219.6435 0002242  93.7031 266.4407 14.27229712713890
Epoch (UTC): 30 August 2016 01:09:49
Eccentricity: 0.0002242
inclination: 98.3290°
perigee height: 799 km
apogee height: 802 km
right ascension of ascending node: 219.6435°
argument of perigee: 93.7031°
revolutions per day: 14.27229712
mean anomaly at epoch: 266.4407°
orbit number at epoch: 71389

The dashed part of the orbit path shows where the satellite is in the earth's shadow,  

DLR